Location: Unspecified
(38.9820°N, 94.4650°W)
Time: 17:24:23
(UTC-05:00)

Okean 3 - Visible Passes

Search period start: 26 May 2016 00:00
Search period end: 05 June 2016 00:00
Orbit: 577 x 605 km, 82.5° (Epoch: 26 May)

Date Brightness Start Highest point End Pass type
(mag) Time Alt. Az. Time Alt. Az. Time Alt. Az.
27 May 6.8 04:52:30 10° NE 04:54:10 12° ENE 04:55:50 10° E visible
28 May 6.4 04:59:56 10° NNE 05:02:52 18° ENE 05:05:48 10° ESE visible
29 May 5.8 05:07:54 10° NNE 05:11:31 27° ENE 05:15:07 10° SE visible
30 May 4.9 05:16:07 10° N 05:20:07 41° E 05:24:07 10° SSE visible
02 Jun 6.6 04:06:23 10° NE 04:08:07 12° ENE 04:09:51 10° E visible
03 Jun 6.2 04:13:50 10° NNE 04:16:48 18° ENE 04:19:47 10° ESE visible
04 Jun 5.6 04:21:49 10° NNE 04:25:27 27° ENE 04:29:05 10° SE visible
